Regional Weather Roundup
Issued by NWS

Home | Current Version | Previous Version | Graphics & Text | Print | Product List | Glossary On
Versions: 1 2 3 4 5 6 7 8 9 10 11 12 13 14 15 16 17 18 19 20 21 22 23 24 25 26 27 28
000
ASUS45 KTFX 240810
RWRMT
MONTANA REGIONAL WEATHER ROUNDUP
NATIONAL WEATHER SERVICE GREAT FALLS MT
200 AM MDT WED MAY 24 2017

NOTE: "FAIR" INDICATES FEW OR NO CLOUDS BELOW 12000 FEET WITH NO
SIGNIFICANT WEATHER AND/OR OBSTRUCTIONS TO VISIBILITY.

MTZ001>007-043-240900-
WEST OF THE DIVIDE

CITY           SKY/WX    TMP DP  RH WIND       PRES   REMARKS
KALISPELL      CLOUDY    64  43  46 S12       29.50F
MISSOULA       CLOUDY    58  48  69 W7        29.65F
BUTTE          CLEAR     51  39  63 S7        29.81F
MULLAN PASS    CLEAR     50  26  39 SW12G23   29.76F
ANACONDA         N/A     61  34  36 S13       29.74F
DEER LODGE       N/A     57  41  54 S10       29.72F
EUREKA           N/A     66  41  39 SE17G25   29.42F
HAMILTON         N/A     63  41  45 S10       29.68F
RONAN            N/A     65  43  44 SE7       29.67F
$$

MTZ008-052>055-240900-
SOUTHWEST MONTANA

CITY           SKY/WX    TMP DP  RH WIND       PRES   REMARKS
BOZEMAN        CLEAR     51  41  68 SE5       29.75F
DILLON         CLEAR     56  36  47 S9        29.82F
W YELLOWSTONE  CLOUDY    43  34  70 CALM      29.96F
ENNIS          CLEAR     54  37  54 S16       29.89F
THREE FORKS      N/A     58  40  51 S7        29.75F
$$

MTZ009-010-012-014-046-048-049-054-240900-
EAST SLOPES AND CENTRAL MONTANA

CITY           SKY/WX    TMP DP  RH WIND       PRES   REMARKS
CUT BANK       CLEAR     60  34  37 S9        29.52F
GREAT FALLS    CLEAR     64  36  35 SW15      29.57F
MALMSTROM AFB  CLEAR     60  40  47 S17       29.56F
HELENA         CLEAR     64  41  42 CALM      29.64F
CHOTEAU          N/A     61  39  44 SW8       29.56F
$$

MTZ011-013-016-021-045-047-050-051-240900-
NORTH CENTRAL MONTANA

CITY           SKY/WX    TMP DP  RH WIND       PRES   REMARKS
HAVRE          CLOUDY    65  44  46 SW13      29.45F
LEWISTOWN      CLEAR     61  41  47 SW13      29.63F
N BAR RANCH      N/A     57  41  54 NW3       29.68F
CHINOOK          N/A     66  45  45 NE6       29.45F
$$

MTZ017>020-022>027-061-062-240900-
NORTHEAST MONTANA

CITY           SKY/WX    TMP DP  RH WIND       PRES   REMARKS
GLASGOW        CLOUDY    58  35  42 SE17      29.60F
JORDAN           N/A     57  35  43 S16       29.63F
SIDNEY         CLEAR     51  33  50 S9        29.76F
WOLF POINT     CLOUDY    60  34  37 VRB7G18   29.67F
MALTA          CLEAR     61  34  36 VRB6G13   29.52F
PLENTYWOOD       N/A     54  34  47 SE14      29.71F
POPLAR           N/A     57  34  41 SE13G20   29.69F
$$

MTZ028>42-056>058-240900-
SOUTHCENTRAL AND SOUTHEAST MONTANA

CITY           SKY/WX    TMP DP  RH WIND       PRES   REMARKS
BAKER          CLEAR     46  35  65 SE16      29.81F
BILLINGS       CLEAR     59  35  40 SW10      29.67F
LIVINGSTON     CLEAR     64  40  41 SW29G36   29.71F
MILES CITY     CLEAR     52  35  52 SE14      29.72F
BIG TIMBER     CLEAR     55  45  67 CALM      29.73F
FORSYTH          N/A     54  37  54 CALM      29.67F
LAUREL           N/A     61  31  32 SW9       29.70S
ROUNDUP          N/A     58  37  45 S5        29.60F
$$

REGIONAL REPORTS...DAKOTAS

CITY           SKY/WX    TMP DP  RH WIND       PRES   REMARKS
WILLISTON      CLOUDY    56  36  47 S13       29.77F
MINOT          CLOUDY    55  38  52 S15       29.83F
DICKINSON      PTCLDY    44  34  67 S14       29.83F
BEACH            N/A     45  34  65 SE13      29.84F
TIOGA            N/A     52  37  58 S13       29.81F
WATFORD CITY     N/A     54  32  43 SE13G21   29.79F
BISMARCK       MOCLDY    42  38  85 CALM      29.90F
GRAND FORKS    MOCLDY    41  39  93 CALM      29.88F
FARGO          CLEAR     41  40  96 N6        29.89S
BUFFALO SD       N/A     43  36  76 SE13      29.79F
RAPID CITY     CLEAR     39  33  79 SE6       29.91F
$$

REGIONAL REPORTS...WYOMING/IDAHO/WASHINGTON

CITY           SKY/WX    TMP DP  RH WIND       PRES   REMARKS
GILLETTE       CLEAR     48  37  65 S18       29.81F
SHERIDAN       CLEAR     43  37  79 CALM      29.75F
BUFFALO WY     CLEAR     51  35  54 CALM      29.81F
CODY           CLEAR     66  36  32 SW13G21   29.82F
YELLOWSTONE LA   N/A     32  31  96 CALM      30.06F
IDAHO FALLS    CLEAR     63  38  39 S14       29.89F
SALMON         CLEAR     54  43  66 CALM      29.77F
BOISE          CLEAR     67  43  41 E12       29.77F
SPOKANE        CLEAR     60  38  43 W24G30    29.67R
$$

REGIONAL REPORTS...ALBERTA

CITY           SKY/WX    TMP DP  RH WIND       PRES   REMARKS
EDMONTON       PTCLDY    63  45  51 SW7       29.14F
CALGARY        PTCLDY    59  41  51 W16G31    29.29
LETHBRIDGE     CLEAR     59  37  44 S17G23    29.36F
MEDICINE HAT   CLEAR     64  43  45 SW15G22   29.32F
WATERTON GATE    N/A     64  36  34 SW22G39     N/A
CARDSTON         N/A     61  36  39 S9          N/A
MILK RIVER       N/A     59  37  44 S13         N/A
$$

REGIONAL REPORTS...SASKATCHEWAN

CITY           SKY/WX    TMP DP  RH WIND       PRES   REMARKS
SWIFT CURRENT  MOCLDY    57  34  41 S22G29    29.44F
REGINA         CLEAR     55  34  44 SE23G29   29.62F
SASKATOON      CLOUDY    63  36  36 S17G25    29.41F
CYPRESS HILLS    N/A     52  39  62 S8          N/A
VAL MARIE        N/A     55  32  41 SE20G28     N/A
ASSINIBOIA       N/A     55  48  76 S5          N/A
$$




USA.gov is the U.S. government's official web portal to all federal, state and local government web resources and services.